Chehalis, WA
on Friday, January 11, 2013

Friday
Previous Day Next Day
Daily Summary
 ActualAverage (KOLM)Record (KOLM)
Temperature
Mean Temperature °F 40°F  
Max Temperature 39°F 45°F 59°F (1983)
Min Temperature 26°F 34°F 6°F (1963)
Degree Days
Heating Degree Days 32 25  
Month to date heating degree days 285  
Since 1 July heating degree days 2555  
Cooling Degree Days 0 0  
Month to date cooling degree days 0  
Year to date cooling degree days 0  
Moisture
Dew Point 28°F   
Average Humidity 88    
Maximum Humidity 100    
Minimum Humidity 49    
Precipitation
Precipitation 0.00 in 0.26 in 1.16 in (1953)
Month to date precipitation 2.83  
Year to date precipitation 2.83  
Wind
Wind Speed 1 mph   
Max Wind Speed 9 mph   
Max Gust Speed mph   
Visibility 5 miles   
Events Fog   

Key: T is trace of precipitation, MM is missing value
Source: NWS Daily Summary
Time(PST)TemperatureDew PointHumidity Pressure Visibility Wind DirectionWind SpeedGust SpeedPrecipitationEvents Conditions
12:15 AM 33.8°F 32.0°F 93% 30.14 in 5.0 miles Calm Calm - N/A   Overcast
12:35 AM 33.8°F 32.0°F 93% 30.14 in 7.0 miles Calm Calm - N/A   Overcast
12:55 AM 33.8°F 32.0°F 93% 30.14 in 8.0 miles Calm Calm - N/A   Overcast
1:15 AM 32.0°F 32.0°F 100% 30.14 in 9.0 miles Calm Calm - N/A   Overcast
1:35 AM 32.0°F 32.0°F 100% 30.15 in 2.0 miles Calm Calm - N/A   Overcast
1:55 AM 32.0°F 32.0°F 100% 30.15 in 0.2 miles Calm Calm - N/A Fog Fog
2:15 AM 32.0°F 32.0°F 100% 30.16 in 0.2 miles North 3.5 mph - N/A Fog Fog
2:35 AM 32.0°F 32.0°F 100% 30.16 in 0.2 miles NE 3.5 mph - N/A Fog Fog
2:55 AM 32.0°F 32.0°F 100% 30.16 in 0.2 miles Calm Calm - N/A Fog Light Freezing Fog
3:15 AM 32.0°F 32.0°F 100% 30.17 in 0.2 miles Calm Calm - N/A Fog Light Freezing Fog
3:55 AM 32.0°F 30.2°F 93% 30.17 in 0.2 miles Calm Calm - N/A Fog Light Freezing Fog
4:15 AM 32.0°F 30.2°F 93% 30.17 in 0.2 miles Calm Calm - N/A Fog Light Freezing Fog
4:35 AM 30.2°F 30.2°F 100% 30.18 in 0.2 miles Calm Calm - N/A Fog Light Freezing Fog
4:55 AM 30.2°F 30.2°F 100% 30.18 in 0.2 miles Calm Calm - N/A Fog Light Freezing Fog
5:15 AM 30.2°F 30.2°F 100% 30.18 in 0.2 miles Calm Calm - N/A Fog Light Freezing Fog
5:35 AM 30.2°F 28.4°F 93% 30.19 in 0.2 miles Calm Calm - N/A Fog Light Freezing Fog
5:55 AM 30.2°F 28.4°F 93% 30.19 in 0.2 miles Calm Calm - N/A Fog Light Freezing Fog
6:15 AM 28.4°F 28.4°F 100% 30.20 in 0.2 miles Calm Calm - N/A Fog Light Freezing Fog
6:35 AM 28.4°F 28.4°F 100% 30.21 in 0.2 miles Calm Calm - N/A Fog Light Freezing Fog
6:55 AM 28.4°F 28.4°F 100% 30.22 in 0.2 miles Calm Calm - N/A Fog Light Freezing Fog
7:15 AM 28.4°F 28.4°F 100% 30.23 in 0.2 miles Calm Calm - N/A Fog Light Freezing Fog
7:35 AM 28.4°F 28.4°F 100% 30.24 in 0.2 miles Calm Calm - N/A Fog Light Freezing Fog
7:55 AM 28.4°F 28.4°F 100% 30.25 in 0.2 miles Calm Calm - N/A Fog Light Freezing Fog
8:15 AM 28.4°F 28.4°F 100% 30.26 in 0.2 miles Calm Calm - N/A Fog Light Freezing Fog
8:35 AM 28.4°F 28.4°F 100% 30.27 in 0.2 miles Calm Calm - N/A Fog Light Freezing Fog
8:55 AM 28.4°F 28.4°F 100% 30.28 in 0.2 miles Calm Calm - N/A Fog Light Freezing Fog
9:55 AM 28.4°F 28.4°F 100% 30.30 in 0.2 miles Calm Calm - N/A Fog Light Freezing Fog
10:15 AM 28.4°F 28.4°F 100% 30.30 in 0.2 miles Calm Calm - N/A Fog Light Freezing Fog
10:35 AM 32.0°F 30.2°F 93% 30.31 in 0.2 miles Calm Calm - N/A Fog Light Freezing Fog
10:55 AM 32.0°F 32.0°F 100% 30.31 in 0.2 miles Calm Calm - N/A Fog Fog
11:15 AM 32.0°F 32.0°F 100% 30.31 in 5.0 miles North 3.5 mph - N/A   Mostly Cloudy
11:35 AM 33.8°F 32.0°F 93% 30.31 in 10.0 miles North 6.9 mph - N/A   Clear
12:15 PM 35.6°F 30.2°F 81% 30.30 in 10.0 miles NE 9.2 mph - N/A   Clear
12:35 PM 37.4°F 26.6°F 65% 30.30 in 8.0 miles ENE 9.2 mph - N/A   Clear
12:55 PM 37.4°F 24.8°F 60% 30.30 in 10.0 miles NE 9.2 mph - N/A   Clear
1:15 PM 39.2°F 24.8°F 56% 30.31 in 9.0 miles ENE 6.9 mph - N/A   Clear
1:35 PM 39.2°F 24.8°F 56% 30.31 in 9.0 miles NE 6.9 mph - N/A   Partly Cloudy
1:55 PM 39.2°F 23.0°F 52% 30.31 in 7.0 miles NE 6.9 mph - N/A   Clear
2:15 PM 39.2°F 23.0°F 52% 30.31 in 10.0 miles NNE 8.1 mph - N/A   Clear
2:35 PM 39.2°F 23.0°F 52% 30.31 in 10.0 miles NE 8.1 mph - N/A   Clear
2:55 PM 39.2°F 23.0°F 52% 30.32 in 10.0 miles NE 8.1 mph - N/A   Clear
3:15 PM 39.2°F 21.2°F 49% 30.32 in 10.0 miles NE 8.1 mph - N/A   Clear
3:35 PM 37.4°F 23.0°F 56% 30.32 in 10.0 miles NE 5.8 mph - N/A   Clear
3:55 PM 37.4°F 23.0°F 56% 30.32 in 10.0 miles NNE 5.8 mph - N/A   Clear
4:15 PM 35.6°F 23.0°F 60% 30.33 in 10.0 miles NNE 5.8 mph - N/A   Clear
4:35 PM 33.8°F 26.6°F 75% 30.33 in 9.0 miles North 3.5 mph - N/A   Clear
4:55 PM 32.0°F 26.6°F 80% 30.33 in 10.0 miles Calm Calm - N/A   Clear
5:15 PM 32.0°F 26.6°F 80% 30.33 in 9.0 miles NNW 3.5 mph - N/A   Clear
5:35 PM 32.0°F 28.4°F 87% 30.33 in 9.0 miles Calm Calm - N/A   Clear
5:55 PM 30.2°F 26.6°F 86% 30.33 in 10.0 miles WSW 3.5 mph - N/A   Clear
6:15 PM 30.2°F 28.4°F 93% 30.34 in 10.0 miles Calm Calm - N/A   Clear
6:35 PM 28.4°F 26.6°F 93% 30.34 in 10.0 miles Calm Calm - N/A   Clear
6:55 PM 28.4°F 28.4°F 100% 30.34 in 10.0 miles Calm Calm - N/A   Clear
7:15 PM 28.4°F 28.4°F 100% 30.34 in 10.0 miles Calm Calm - N/A   Clear
7:35 PM 28.4°F 26.6°F 93% 30.33 in 10.0 miles Calm Calm - N/A   Clear
7:55 PM 28.4°F 26.6°F 93% 30.32 in 10.0 miles Calm Calm - N/A   Clear
8:15 PM 28.4°F 26.6°F 93% 30.33 in 8.0 miles Calm Calm - N/A   Clear
8:35 PM 28.4°F 28.4°F 100% 30.33 in 10.0 miles Calm Calm - N/A   Clear
8:55 PM 28.4°F 26.6°F 93% 30.34 in 10.0 miles Calm Calm - N/A   Clear
9:15 PM 28.4°F 26.6°F 93% 30.33 in 10.0 miles Calm Calm - N/A   Clear
9:35 PM 28.4°F 26.6°F 93% 30.33 in 7.0 miles Calm Calm - N/A   Clear
9:55 PM 28.4°F 26.6°F 93% 30.33 in 8.0 miles Calm Calm - N/A   Clear
10:15 PM 28.4°F 26.6°F 93% 30.33 in 10.0 miles Calm Calm - N/A   Clear
10:35 PM 26.6°F 26.6°F 100% 30.33 in 8.0 miles SSW 3.5 mph - N/A   Clear
10:55 PM 26.6°F 26.6°F 100% 30.33 in 10.0 miles South 3.5 mph - N/A   Clear
11:35 PM 26.6°F 26.6°F 100% 30.33 in 1.2 miles Calm Calm - N/A   Mostly Cloudy
11:55 PM 26.6°F 26.6°F 100% 30.33 in 1.0 miles Calm Calm - N/A   Mostly Cloudy
Moon Phase
Jan. 11 Jan. 18 Jan. 26 Feb. 03 Feb. 10
Sunrise:07:54 AM (PST) Moon Rise:07:28 AM (PST)1/11
Sunset:04:46 PM (PST) Moon Set:05:14 PM (PST)1/11

Copyright © 2014 The Weather Underground, Inc.